TimeMST,TemperatureF,Dew PointF,Humidity,Sea Level PressureIn,VisibilityMPH,Wind Direction,Wind SpeedMPH,Gust SpeedMPH,PrecipitationIn,Events,Conditions,WindDirDegrees,DateUTC
12:15 AM,48.2,4.1,16,29.90,10.0,West,21.9,27.6,N/A,,Clear,270,2013-02-18 07:15:00
12:35 AM,48.2,4.1,16,29.90,10.0,West,24.2,27.6,N/A,,Clear,270,2013-02-18 07:35:00
12:55 AM,46.8,4.5,18,29.91,10.0,West,21.9,25.3,N/A,,Clear,270,2013-02-18 07:55:00
1:15 AM,45.5,4.8,19,29.92,10.0,West,16.1,-,N/A,,Clear,280,2013-02-18 08:15:00
1:35 AM,43.2,5.0,21,29.92,10.0,West,15.0,-,N/A,,Clear,280,2013-02-18 08:35:00
1:55 AM,43.0,5.2,21,29.93,10.0,West,16.1,-,N/A,,Clear,280,2013-02-18 08:55:00
2:15 AM,42.8,5.9,22,29.92,10.0,West,15.0,-,N/A,,Clear,270,2013-02-18 09:15:00
2:35 AM,41.9,5.9,23,29.93,10.0,West,11.5,-,N/A,,Clear,270,2013-02-18 09:35:00
2:55 AM,40.1,5.9,24,29.94,10.0,West,10.4,-,N/A,,Clear,270,2013-02-18 09:55:00
3:15 AM,41.5,7.7,25,29.94,10.0,West,17.3,-,N/A,,Clear,280,2013-02-18 10:15:00
3:35 AM,46.2,8.6,22,29.95,10.0,WNW,15.0,-,N/A,,Clear,290,2013-02-18 10:35:00
3:55 AM,45.3,8.6,22,29.95,10.0,West,15.0,-,N/A,,Clear,280,2013-02-18 10:55:00
4:15 AM,44.2,8.6,23,29.95,10.0,West,13.8,19.6,N/A,,Clear,280,2013-02-18 11:15:00
4:35 AM,43.9,8.6,24,29.96,10.0,WNW,10.4,-,N/A,,Clear,290,2013-02-18 11:35:00
4:55 AM,38.8,7.3,27,29.98,10.0,NW,8.1,-,N/A,,Clear,310,2013-02-18 11:55:00
5:15 AM,37.9,7.0,28,29.98,10.0,West,11.5,-,N/A,,Clear,280,2013-02-18 12:15:00
5:35 AM,37.2,7.0,28,30.00,10.0,NW,5.8,-,N/A,,Clear,320,2013-02-18 12:35:00
5:55 AM,36.9,6.8,29,30.00,10.0,West,11.5,-,N/A,,Clear,280,2013-02-18 12:55:00
6:15 AM,34.0,6.1,31,30.01,10.0,West,9.2,-,N/A,,Clear,260,2013-02-18 13:15:00
6:35 AM,38.8,8.2,28,30.02,10.0,WSW,12.7,-,N/A,,Clear,240,2013-02-18 13:35:00
6:55 AM,37.4,7.7,29,30.04,10.0,South,5.8,-,N/A,,Clear,190,2013-02-18 13:55:00
7:15 AM,38.1,8.4,29,30.04,10.0,WSW,11.5,-,N/A,,Clear,240,2013-02-18 14:15:00
7:35 AM,39.7,8.6,28,30.04,10.0,West,10.4,-,N/A,,Clear,270,2013-02-18 14:35:00
7:55 AM,43.2,9.3,25,30.05,10.0,West,8.1,-,N/A,,Clear,260,2013-02-18 14:55:00
8:15 AM,46.8,9.5,22,30.07,10.0,West,9.2,-,N/A,,Clear,260,2013-02-18 15:15:00
8:35 AM,48.6,9.7,21,30.08,10.0,West,11.5,-,N/A,,Clear,270,2013-02-18 15:35:00
8:55 AM,50.4,9.9,20,30.08,10.0,West,13.8,-,N/A,,Clear,270,2013-02-18 15:55:00
9:35 AM,53.4,10.0,18,30.09,10.0,West,15.0,20.7,N/A,,Clear,270,2013-02-18 16:35:00
9:55 AM,54.3,9.9,17,30.09,10.0,West,16.1,23.0,N/A,,Clear,270,2013-02-18 16:55:00
10:15 AM,55.2,9.5,16,30.09,10.0,WSW,17.3,23.0,N/A,,Clear,250,2013-02-18 17:15:00
10:35 AM,55.9,9.1,15,30.08,10.0,West,18.4,-,N/A,,Clear,270,2013-02-18 17:35:00
10:55 AM,56.7,9.5,15,30.09,10.0,West,13.8,25.3,N/A,,Clear,260,2013-02-18 17:55:00
11:15 AM,58.1,9.3,14,30.09,10.0,WNW,12.7,20.7,N/A,,Clear,290,2013-02-18 18:15:00
11:35 AM,58.3,8.6,14,30.08,10.0,WNW,12.7,21.9,N/A,,Clear,300,2013-02-18 18:35:00
11:55 AM,59.5,9.5,14,30.08,10.0,West,15.0,20.7,N/A,,Clear,270,2013-02-18 18:55:00
12:15 PM,59.5,9.0,14,30.06,10.0,WSW,12.7,21.9,N/A,,Clear,250,2013-02-18 19:15:00
12:35 PM,60.8,7.7,12,30.05,10.0,WSW,12.7,23.0,N/A,,Clear,250,2013-02-18 19:35:00
12:55 PM,61.3,6.8,12,30.04,10.0,West,18.4,21.9,N/A,,Clear,270,2013-02-18 19:55:00
1:15 PM,61.9,6.4,11,30.03,10.0,West,11.5,21.9,N/A,,Clear,270,2013-02-18 20:15:00
1:35 PM,63.1,6.8,11,30.03,10.0,WSW,13.8,23.0,N/A,,Clear,250,2013-02-18 20:35:00
1:55 PM,63.0,7.7,11,30.02,10.0,West,11.5,23.0,N/A,,Clear,260,2013-02-18 20:55:00
2:15 PM,62.8,5.9,11,30.01,10.0,West,10.4,25.3,N/A,,Clear,270,2013-02-18 21:15:00
2:35 PM,63.3,7.5,11,30.01,10.0,West,17.3,24.2,N/A,,Clear,270,2013-02-18 21:35:00
2:55 PM,62.2,7.5,12,30.01,10.0,SW,15.0,19.6,N/A,,Clear,230,2013-02-18 21:55:00
3:15 PM,62.6,7.5,11,30.01,10.0,SW,11.5,23.0,N/A,,Clear,230,2013-02-18 22:15:00
3:35 PM,61.9,7.5,12,30.01,10.0,WSW,12.7,20.7,N/A,,Clear,250,2013-02-18 22:35:00
3:55 PM,61.9,7.0,11,30.01,10.0,WSW,13.8,21.9,N/A,,Clear,240,2013-02-18 22:55:00
4:15 PM,61.3,6.4,11,30.01,10.0,WSW,13.8,19.6,N/A,,Clear,240,2013-02-18 23:15:00
4:35 PM,60.4,5.9,11,30.01,10.0,SW,13.8,-,N/A,,Clear,230,2013-02-18 23:35:00
4:55 PM,59.9,5.4,11,30.02,10.0,WSW,12.7,-,N/A,,Clear,240,2013-02-18 23:55:00
5:15 PM,58.8,5.0,12,30.01,10.0,WSW,11.5,-,N/A,,Clear,240,2013-02-19 00:15:00
5:35 PM,58.1,4.5,12,30.01,10.0,WSW,6.9,-,N/A,,Clear,250,2013-02-19 00:35:00
5:55 PM,56.8,3.4,12,30.02,10.0,WSW,6.9,-,N/A,,Clear,250,2013-02-19 00:55:00
6:15 PM,55.2,3.0,12,30.02,10.0,SW,4.6,-,N/A,,Clear,230,2013-02-19 01:15:00
6:35 PM,53.8,2.8,13,30.02,10.0,West,6.9,-,N/A,,Clear,270,2013-02-19 01:35:00
6:55 PM,52.9,3.0,13,30.03,10.0,WSW,8.1,-,N/A,,Clear,240,2013-02-19 01:55:00
7:15 PM,52.7,3.0,13,30.03,10.0,SW,6.9,-,N/A,,Clear,230,2013-02-19 02:15:00
7:35 PM,51.8,3.0,14,30.03,10.0,SW,5.8,-,N/A,,Clear,220,2013-02-19 02:35:00
7:55 PM,50.4,2.8,14,30.03,10.0,SW,6.9,-,N/A,,Clear,230,2013-02-19 02:55:00
8:15 PM,49.3,2.7,15,30.04,10.0,SW,5.8,-,N/A,,Clear,230,2013-02-19 03:15:00
8:35 PM,49.3,2.7,15,30.04,10.0,SW,4.6,-,N/A,,Clear,230,2013-02-19 03:35:00
8:55 PM,49.3,2.7,15,30.04,10.0,WSW,5.8,-,N/A,,Clear,240,2013-02-19 03:55:00
9:15 PM,49.1,2.7,15,30.04,10.0,WSW,4.6,-,N/A,,Clear,240,2013-02-19 04:15:00
9:35 PM,47.7,2.1,15,30.04,10.0,West,5.8,-,N/A,,Clear,280,2013-02-19 04:35:00
9:55 PM,45.5,1.4,16,30.04,10.0,WSW,3.5,-,N/A,,Clear,250,2013-02-19 04:55:00
10:15 PM,46.4,1.9,16,30.05,10.0,SSW,3.5,-,N/A,,Clear,200,2013-02-19 05:15:00
10:35 PM,46.9,2.7,16,30.05,10.0,SSW,8.1,-,N/A,,Clear,200,2013-02-19 05:35:00
10:55 PM,47.5,2.7,16,30.05,10.0,SSW,5.8,-,N/A,,Clear,200,2013-02-19 05:55:00
11:15 PM,47.7,2.7,16,30.05,10.0,SSW,5.8,-,N/A,,Clear,200,2013-02-19 06:15:00
11:35 PM,45.5,1.8,16,30.05,10.0,South,8.1,-,N/A,,Clear,190,2013-02-19 06:35:00
11:55 PM,46.4,2.1,16,30.05,10.0,SSW,6.9,-,N/A,,Clear,200,2013-02-19 06:55:00